Regional Weather Roundup
Issued by NWS

Home | Current Version | Previous Version | Text Only | Print | Product List | Glossary On
Versions: 1 2 3 4 5 6 7 8 9 10 11 12 13 14 15 16 17 18 19 20 21 22 23 24 25 26 27 28 29 30 31 32 33 34 35 36 37 38 39 40 41 42 43 44 45 46 47 48 49 50
000
ASUS43 KLSX 221207
RWRMO

WEATHER SUMMARY FOR MISSOURI
NATIONAL WEATHER SERVICE SPRINGFIELD MO
600 AM CST WED FEB 22 2017

NOTE: "FAIR" INDICATES FEW OR NO CLOUDS BELOW 12,000 FEET WITH NO
       SIGNIFICANT WEATHER AND/OR OBSTRUCTIONS TO VISIBILITY.
       CURRENT SKY AND/OR WEATHER CONDITIONS ARE NOT AVAILABLE FOR
       CHILLICOTHE AND FARMINGTON.

MOZ001>031-035>038-043-044-053-054-221300-
...NORTHERN AND WESTERN MISSOURI...

CITY           SKY/WX    TMP DP  RH WIND       PRES   REMARKS
KANSAS CTY INT CLEAR     47  38  71 S12       29.80S
6HR MIN TEMP:  42; 6HR MAX TEMP:  49;

KANSAS C DTWN  CLEAR     48  38  68 CALM      29.80F
6HR MIN TEMP:  44; 6HR MAX TEMP:  52;

LEE`S SUMMIT   CLEAR     50  45  83 SW10      29.82S
6HR MIN TEMP:  48; 6HR MAX TEMP:  56;

ST JOSEPH      CLEAR     44  34  67 S7        29.77F
6HR MIN TEMP:  41; 6HR MAX TEMP:  46;

CHILLICOTHE      N/A     47  44  90 S5        29.80F
6HR MIN TEMP:  41; 6HR MAX TEMP:  49;

KIRKSVILLE     FOG       49  48  97 S8        29.81F VSB 1/4
6HR MIN TEMP:  45; 6HR MAX TEMP:  55;


$$
MOZ066>068-077>081-088>096-101>105-221300-
...SOUTHWEST MISSOURI...

CITY           SKY/WX    TMP DP  RH WIND       PRES   REMARKS
SPRINGFIELD    CLOUDY    54  54 100 S10       29.88F FOG
6HR MIN TEMP:  49; 6HR MAX TEMP:  55;

JOPLIN         CLEAR     51  51 100 SE8       29.85F FOG
6HR MIN TEMP:  49; 6HR MAX TEMP:  54;


$$
MOZ032>034-039>042-045>050-055>058-069>072-221300-
...CENTRAL MISSOURI...

CITY           SKY/WX    TMP DP  RH WIND       PRES   REMARKS
COLUMBIA       FOG       50  50 100 S8        29.86S VSB 1/4
6HR MIN TEMP:  48; 6HR MAX TEMP:  53;

JEFFERSON CITY FOG       52  52 100 CALM      29.87S VSB 1/4
6HR MIN TEMP:  47; 6HR MAX TEMP:  52;

ROLLA          FOG       53  53 100 S8        29.88R VSB 1/4
6HR MIN TEMP:  50; 6HR MAX TEMP:  55;

SEDALIA        MOCLDY    53  52  96 S7        29.85S FOG
6HR MIN TEMP:  48; 6HR MAX TEMP:  57;

WHITEMAN AFB   PTCLDY    48  48 100 S7        29.83S FOG
WARRENSBURG    CLEAR     46  45  93 SE5       29.84R
OSAGE BEACH    LGT RAIN  53  53 100 S6        29.89S VSB 1/2

$$
MOZ051-052-059>065-221300-
...EAST CENTRAL MISSOURI...

CITY           SKY/WX    TMP DP  RH WIND       PRES   REMARKS
ST LOUIS INTL  FOG       51  49  92 SW6       29.88S VSB 1/4
6HR MIN TEMP:  48; 6HR MAX TEMP:  59;

SPIRIT OF STL  FOG       53  53 100 W6        29.87S VSB 1/2
6HR MIN TEMP:  49; 6HR MAX TEMP:  57; 6HR PCP: TRACE;

ST CHARLES     FOG       51  51 100 CALM      29.88R VSB 1/4
6HR MIN TEMP:  50; 6HR MAX TEMP:  53;


$$
MOZ072>076-082>087-097>100-106>115-221300-
...SOUTH CENTRAL AND SOUTHEAST MISSOURI...

CITY           SKY/WX    TMP DP  RH WIND       PRES   REMARKS
CAPE GIRARDEAU CLOUDY    57  55  93 CALM      29.89S FOG
6HR MIN TEMP:  53; 6HR MAX TEMP:  58;

FARMINGTON     CLOUDY    57  55  93 SW5       29.90R
6HR MIN TEMP:  54; 6HR MAX TEMP:  57;

POPLAR BLUFF   CLOUDY    57  57 100 CALM      29.88F FOG
6HR MIN TEMP:  57; 6HR MAX TEMP:  59;

WEST PLAINS    FOG       54  54 100 W5        29.92R VSB 3/4
6HR MIN TEMP:  53; 6HR MAX TEMP:  56;


$$


USA.gov is the U.S. government's official web portal to all federal, state and local government web resources and services.